Weather in Santiago de los Caballeros

Dominican Republic     19°27′20″N   70°41′48″W
temp.,
°C
wind,
m/s
gust,
m/s
humid.,
%
clouds,
%
prec.,
mm/h
press.,
hPa
HPBL,
m
18 january, mon
mon1823:00+19ese3593100 0.0 1017112
02:00+18ese3797100 0.0 1016201
05:00+17ese369797 0.0 1015155
08:00+18ese239298 0.0 101898
11:00+24ese3473100 0.0 1019450
14:00+28se3456100 0.1 10181123
17:00+28ese1260100 0.2 1016985
20:00+21ne129299 0.4 101824
19 january, tue
tue1923:00+20ese2394100 0.1 101936
02:00+20ese379899 0.1 1018210
05:00+20ese4998100 0.0 1017319
08:00+20ese4997100 0.0 1019370
11:00+24ese6873100 0.0 1020945
14:00+27se6757100 0.0 10191323
17:00+26se5664100 0.0 10171086
20:00+20ene2391100 0.0 102042
20 january, wed
wed2023:00+19ese2395100 0.1 102042
02:00+20se3693100 0.3 1018191
05:00+19ese369694 0.1 1017153
08:00+20ese369593 0.1 1019198
11:00+25ese4671100 0.1 1019902
14:00+28ese456175 0.3 10161219
17:00+26e356991 0.2 10151002
20:00+20ene229081 0.3 101725
21 january, thu
thu2123:00+19ene12978 0.0 101824
02:00+19ene12965 0.1 101725
05:00+19e12954 0.1 101626
08:00+20e12945 0.1 101736
11:00+25e22675 0.1 1018930
14:00+26ne336925 1.3 1015758
17:00+23ne368313 1.5 1015590
20:00+20ne129227 1.8 101731
22 january, fri
fri2223:00+19e129577 0.1 101727
02:00+19e229541 0.1 101631
05:00+18ese23961 0.0 101549
08:00+19ese239620 0.0 1017112
11:00+23ese458143 0.1 1018592
14:00+28ese565843 0.1 10161264
17:00+27e346349 0.1 10151250
20:00+20ene229229 0.1 101630